Tracking 34223 objects as of 31-May-2026
HD Live streaming from Space Station
objects crossing your sky now

FORMOSAT7-1/COSMIC2-1

Track FORMOSAT7-1/COSMIC2-1 now!
10-day predictions


NORAD ID: 44349
Int'l Code: 2019-036L
Perigee: 584.7 km
Apogee: 585.5 km
Inclination: 24.0 °
Period: 96.2 minutes
Semi major axis: 6956 km
RCS: Unknown
Launch date: June 25, 2019
Source: Taiwan (Republic of China) (ROC)
Launch site: AIR FORCE EASTERN TEST RANGE (AFETR)
Your satellite tracking list
Your tracking list is empty




NASA's NSSDC Master Catalog

Two Line Element Set (TLE):
1 44349U 19036L   26151.17709766  .00003560  00000-0  28038-3 0  9999
2 44349  23.9966 147.0626 0000622   8.0099 352.0412 14.96426827382103
Source of the keplerian elements: AFSPC